Theta_e
342 342 341 339 338 338 336 335 334 335 334 334 334 334 335 336 335 335 336 336 336 336 337 337 337 337 337 337 338 338 339 338 339 341 344 345 345 345 346 347 347 347
344 344 343 341 340 339 338 337 337 337 337 336 336 336 335 335 336 337 336 336 336 336 336 336 336 336 336 336 336 337 338 338 338 339 341 343 344 344 345 347 348 348
346 344 343 342 341 340 339 338 338 339 338 338 338 338 337 336 336 337 337 336 336 335 335 335 335 335 335 335 334 335 336 337 337 337 339 340 342 344 344 345 347 347
347 346 344 342 341 342 341 340 339 339 339 339 339 339 338 337 336 337 338 337 337 336 335 335 335 334 334 334 334 334 335 336 337 337 337 337 339 341 342 343 344 345
348 347 347 345 343 342 341 340 340 339 339 338 338 338 338 336 336 337 337 337 337 336 335 335 335 334 334 334 334 334 335 336 337 337 337 336 337 338 340 341 341 342
347 347 348 347 345 342 341 340 339 338 338 338 337 337 336 336 336 336 337 337 337 336 336 335 334 334 333 334 335 336 337 337 336 337 337 336 336 337 338 339 339 340
347 347 347 348 347 345 343 340 339 338 337 337 337 336 336 336 336 336 336 337 337 336 335 334 334 334 333 333 335 337 338 338 337 336 336 336 336 336 337 337 337 338
346 347 347 347 348 348 346 342 339 337 337 337 337 336 336 336 336 336 336 337 336 336 334 334 334 334 334 333 334 336 337 337 336 336 335 336 336 337 336 336 337 337
346 347 347 348 348 348 347 345 342 338 337 336 336 336 335 336 336 336 336 336 336 335 334 333 333 333 334 334 333 334 335 336 336 336 335 336 336 336 336 336 336 337
347 347 347 347 348 348 348 347 345 342 339 336 337 336 336 335 335 335 335 336 335 335 334 332 331 332 333 334 334 334 335 335 335 335 335 335 335 336 335 335 335 335
347 347 347 347 347 348 348 348 348 346 343 340 339 337 336 335 334 334 334 335 334 334 332 331 330 330 331 333 334 334 334 334 334 334 334 333 334 334 334 334 333 332
347 347 347 348 347 348 348 348 348 347 345 343 341 339 337 335 334 333 333 333 333 332 331 330 329 329 329 331 332 333 333 333 333 333 333 333 333 333 333 332 332 331
347 347 347 347 347 347 347 347 348 347 347 345 344 342 339 336 335 334 333 332 332 332 331 330 329 329 328 329 331 331 332 332 332 332 332 332 333 333 333 333 332 332
346 347 347 347 347 347 347 347 348 348 347 346 345 344 341 339 336 335 334 333 333 332 331 331 330 329 329 329 330 331 331 332 332 332 332 332 331 331 331 332 331 331
346 346 347 347 348 347 347 347 347 347 347 347 346 345 343 342 340 338 335 334 333 332 331 331 330 329 328 328 329 329 330 330 331 331 331 331 330 329 329 329 330 330
346 347 347 347 348 348 347 348 347 347 347 348 347 347 346 344 343 340 338 335 332 332 332 331 331 330 328 328 328 329 329 329 330 330 329 329 329 329 329 329 330 329
347 347 347 348 348 348 348 347 348 347 347 347 348 347 347 346 344 344 342 337 333 332 331 331 331 329 328 328 328 329 330 329 329 329 330 330 329 329 329 329 329 329
348 347 347 348 347 348 347 347 347 347 348 348 348 347 348 347 347 346 343 338 336 334 331 331 330 329 329 329 329 329 330 330 330 330 330 330 329 329 329 329 329 329
348 347 347 347 347 348 347 348 348 348 347 348 348 348 349 349 348 347 345 342 340 336 332 331 330 329 329 329 329 329 329 330 330 330 330 329 330 330 329 329 329 329
347 347 347 347 347 347 347 348 348 347 348 348 348 348 348 348 349 349 348 346 344 340 335 334 332 330 329 329 329 329 330 330 331 331 331 330 330 330 330 330 330 330
348 347 347 347 347 347 348 348 348 348 348 348 348 348 348 349 349 349 349 348 346 344 341 338 334 331 330 329 330 330 330 331 332 332 333 332 331 331 331 331 331 331
347 348 347 347 347 347 348 348 348 347 348 348 348 348 348 349 349 349 350 349 348 348 347 343 337 333 333 331 331 332 332 333 333 334 334 334 333 332 332 332 332 333
348 348 347 347 347 347 347 348 348 348 347 348 348 349 349 349 350 350 350 351 351 351 350 348 342 339 337 335 334 335 336 337 337 336 336 335 334 334 334 333 334 334
347 347 347 346 347 347 347 348 347 348 348 348 349 349 350 350 351 351 351 351 352 353 353 352 351 348 346 344 343 344 345 345 344 343 342 340 338 337 336 336 336 336
347 347 347 346 347 347 347 348 348 348 349 349 350 350 351 351 351 352 353 353 354 355 355 356 356 355 353 352 351 351 351 351 350 350 348 346 344 343 341 339 338 338
348 348 347 347 348 347 348 349 349 349 350 350 351 352 352 353 353 354 355 356 356 357 357 358 358 358 357 356 355 355 355 355 355 354 352 350 349 347 346 345 343 342
Wind_Speed
35 35 35 35 35 34 32 32 31 30 30 29 27 25 23 22 20 20 19 19 19 18 18 18 17 16 16 15 15 14 14 14 14 13 13 13 12 11 11 10 10 9
34 35 35 35 35 34 32 31 31 30 29 28 27 26 24 23 21 20 20 19 19 19 18 18 17 17 17 16 16 15 15 14 14 14 14 13 13 12 12 11 10 10
34 33 34 34 34 33 33 32 31 30 28 28 27 26 25 24 23 22 21 20 19 19 19 18 18 18 18 18 17 17 16 16 15 15 15 14 14 13 13 12 11 11
34 33 32 33 33 33 33 33 31 30 29 28 27 27 26 25 24 23 22 21 20 20 20 19 19 19 19 19 19 18 18 17 16 16 16 16 15 15 14 13 12 12
35 33 31 31 32 32 32 32 31 30 29 28 27 27 27 26 25 24 23 22 21 20 20 21 20 20 21 21 20 20 19 18 18 17 17 17 16 16 15 14 13 13
36 34 32 31 30 30 31 31 30 29 29 28 27 27 27 26 26 25 24 22 21 20 21 21 21 21 22 22 22 22 21 20 19 18 19 18 17 17 16 16 15 14
37 35 33 32 31 30 29 29 29 29 28 27 27 27 27 27 26 26 25 23 22 21 21 21 21 22 23 24 24 23 22 22 21 20 20 19 19 18 18 17 16 15
37 36 35 34 32 31 29 29 29 29 28 28 27 27 27 27 27 26 26 24 24 23 22 21 21 21 22 24 25 24 24 23 23 22 21 20 19 19 18 17 17 16
37 37 36 35 34 32 30 29 28 28 29 29 28 27 27 27 27 27 27 26 25 25 23 23 22 21 22 24 25 25 24 24 23 22 22 21 20 19 18 18 18 17
38 37 37 36 35 34 31 29 29 29 29 29 28 28 28 28 28 28 28 28 28 27 26 25 24 23 23 23 24 25 24 24 23 23 22 22 21 20 20 19 19 18
40 38 38 36 36 35 33 31 30 29 29 28 29 29 29 29 29 29 29 30 29 29 28 27 26 25 25 25 25 25 24 24 24 23 23 23 23 22 21 21 20 19
42 40 39 37 36 35 34 32 31 30 29 28 28 28 29 30 30 30 31 30 30 29 29 28 28 27 27 27 26 26 26 25 25 24 24 24 24 24 23 22 21 20
43 41 40 38 37 35 34 33 32 31 29 28 27 28 29 30 30 31 31 31 30 30 29 29 29 29 29 28 28 28 27 27 26 25 25 25 25 25 24 24 23 22
43 41 40 38 37 35 34 33 32 31 30 28 28 28 29 30 30 31 31 31 31 31 30 30 30 30 30 30 30 29 28 28 27 27 27 27 27 26 26 26 26 25
42 41 40 39 37 35 34 33 32 32 31 30 30 29 29 29 30 30 31 31 31 31 31 31 31 32 32 32 31 30 30 29 29 29 29 29 29 28 27 27 27 26
42 41 40 39 38 36 35 34 33 33 32 32 31 30 30 30 30 31 31 31 31 32 32 32 33 33 33 33 32 31 30 30 30 30 30 30 29 29 28 28 27 27
41 41 40 39 38 37 36 35 34 34 34 33 33 32 31 31 31 31 31 31 32 33 33 34 35 35 34 33 32 32 31 31 31 31 30 30 30 29 29 28 28 28
41 41 40 39 39 38 36 35 35 35 35 35 34 33 33 32 32 31 31 32 33 34 35 35 36 36 34 34 33 32 32 31 31 31 31 31 30 30 30 29 28 28
41 40 39 39 38 37 36 35 36 36 36 36 35 34 34 34 33 32 32 32 33 34 36 36 37 36 35 34 34 33 32 31 31 32 31 31 31 31 30 29 29 28
39 39 38 38 36 36 36 36 37 37 37 36 35 35 35 35 33 32 33 33 33 34 36 37 37 37 36 35 34 34 33 32 32 32 32 32 31 31 31 30 29 29
39 38 38 37 36 36 36 37 37 37 36 35 35 36 36 35 34 34 34 33 33 33 35 37 38 37 36 35 34 34 33 33 33 32 32 32 32 31 31 30 30 29
38 38 36 35 35 35 36 36 36 36 35 35 35 35 35 34 34 34 34 33 32 33 34 36 37 37 36 36 34 33 33 33 33 33 32 32 32 32 31 30 29 29
37 36 35 34 34 35 36 35 35 35 34 34 35 36 36 35 35 34 34 34 33 33 34 35 35 35 35 34 33 33 33 33 33 33 33 32 32 31 31 30 29 28
36 35 34 33 33 34 34 34 34 34 34 34 35 35 35 35 34 34 34 34 33 33 34 34 34 34 34 33 32 32 32 32 32 32 32 32 32 31 30 29 28 27
34 33 32 32 32 32 32 31 31 31 31 32 33 33 33 33 33 33 33 33 32 32 32 33 33 33 33 33 32 31 31 31 30 31 32 32 31 30 29 28 26 25
32 31 31 30 30 29 27 27 28 28 30 31 31 31 31 31 32 33 32 32 31 31 30 31 31 30 30 30 29 29 29 28 28 30 31 31 30 28 26 26 25 24
Wind_Direction
226 227 227 229 231 233 233 233 233 234 234 234 233 234 234 236 236 235 235 234 234 235 235 236 239 242 245 245 244 245 247 249 250 254 258 263 268 269 269 269 266 263
225 226 226 228 230 231 233 233 234 234 235 235 236 237 236 237 237 236 235 234 234 235 236 238 240 242 244 245 244 245 248 250 251 255 259 263 268 269 270 272 269 266
225 225 225 227 229 231 232 233 234 234 235 236 237 238 237 237 237 236 235 235 235 237 238 240 242 243 244 244 243 245 248 250 251 254 258 261 265 267 268 268 268 269
226 226 225 227 228 230 231 233 234 234 235 236 236 237 237 237 237 237 237 237 237 239 240 241 242 243 243 244 243 244 247 250 251 252 255 257 260 263 264 263 263 266
228 227 227 227 228 230 231 233 234 234 235 236 236 236 237 237 237 237 238 238 238 240 241 241 241 240 241 242 242 242 244 247 248 250 254 255 258 260 261 261 260 261
229 229 228 229 229 230 231 232 233 234 234 235 235 236 236 237 237 237 237 238 238 240 240 240 240 238 238 239 239 240 241 244 247 249 252 254 256 258 259 260 260 260
229 229 229 230 231 231 231 232 233 233 233 234 235 235 236 237 238 237 237 238 238 239 238 239 239 237 237 237 238 239 240 243 247 250 252 254 256 256 258 261 262 262
229 229 230 230 231 232 232 232 233 232 232 232 233 234 235 236 237 237 238 238 238 238 237 238 238 237 238 237 237 239 242 244 247 250 254 256 256 256 258 260 262 264
228 229 229 229 230 232 232 232 233 232 232 232 231 232 233 234 235 236 237 238 239 239 238 239 239 238 237 237 238 239 242 244 246 249 253 255 256 257 258 259 261 263
226 227 228 229 229 231 231 232 233 233 233 233 232 233 233 234 234 235 237 238 240 240 239 238 238 237 236 236 237 239 241 243 245 248 251 254 255 257 258 259 260 261
225 226 228 228 228 230 230 231 232 234 234 233 234 235 234 235 235 236 238 240 241 242 240 238 236 235 235 234 235 237 239 242 246 248 250 252 254 256 257 258 259 260
226 226 226 226 227 228 229 230 231 233 234 233 234 235 235 236 236 237 239 241 242 242 241 238 236 235 235 235 236 238 240 243 246 248 249 251 253 254 256 257 258 260
226 226 226 226 226 227 228 229 230 232 233 232 232 234 235 236 237 238 240 242 243 243 241 239 237 236 236 236 237 239 241 243 244 246 248 250 252 254 255 258 259 261
226 226 226 227 227 227 227 228 229 231 231 231 231 232 233 235 237 238 240 242 243 243 242 240 238 237 237 237 237 238 240 242 244 246 249 251 253 255 256 259 261 264
225 225 226 227 228 227 227 228 228 229 231 231 231 231 232 234 235 237 239 240 241 242 242 242 240 238 237 236 237 238 240 243 245 248 251 254 256 258 258 260 261 264
224 225 225 227 227 227 227 228 228 229 230 231 232 232 232 233 234 236 237 238 239 241 242 242 241 239 237 237 238 239 242 245 248 250 253 255 257 259 259 260 261 263
224 225 226 227 227 228 228 228 228 229 230 231 231 232 232 233 234 235 236 237 238 240 241 242 242 240 239 238 239 241 244 247 250 252 254 256 257 258 259 261 262 264
224 225 226 226 227 228 229 229 230 231 231 231 231 232 233 234 235 236 236 236 237 239 240 242 242 242 241 241 242 243 245 247 250 253 255 256 257 258 260 261 263 264
223 224 225 226 228 228 229 230 231 232 233 233 233 234 235 236 237 237 236 237 238 239 240 241 243 243 242 242 243 244 245 247 250 253 255 256 257 259 260 262 263 264
223 224 226 227 228 229 230 231 233 234 234 235 236 237 238 238 239 239 239 238 239 240 241 242 243 244 243 243 243 244 245 247 249 252 254 256 257 258 260 261 263 264
223 224 225 227 228 230 231 233 234 235 236 237 238 239 240 241 241 242 242 242 241 241 243 243 243 243 243 243 243 244 246 247 249 251 253 255 256 257 258 259 261 263
223 224 225 227 228 230 232 233 235 235 236 236 238 240 241 242 243 244 245 245 244 244 245 245 244 243 244 244 244 245 247 249 250 252 253 254 255 256 257 258 259 261
224 225 226 227 228 230 231 233 234 235 235 236 238 239 241 242 243 244 246 246 246 246 247 247 245 244 244 244 244 245 247 249 251 252 254 254 255 255 256 257 258 259
224 225 226 228 229 230 232 233 234 236 237 238 240 241 243 244 246 247 248 248 248 248 248 248 248 247 246 245 245 246 247 249 251 253 255 255 255 255 255 256 256 256
225 226 227 229 230 232 234 235 236 238 238 240 241 242 244 246 247 249 249 249 249 249 249 249 250 249 248 246 246 247 248 250 251 253 253 253 254 254 255 255 254 254
226 227 228 230 232 233 235 236 237 238 238 240 241 242 243 244 245 247 248 248 248 248 248 248 249 250 249 247 246 246 247 248 249 249 250 251 253 254 254 255 254 253